Location: Las Vegas
(36.1750°N, 115.1360°W)
Time: 05:19:35
(UTC-07:00)

Amateur Radio Satellites - All Passes

Search period start: 21 October 2017 04:49
Search period end: 22 October 2017 04:49
Location: Las Vegas, 36.1750°N, 115.1360°W

Satellite Date Start Highest point End Downlink Frequencies (MHz)
Time Altitude Azimuth
AO-7 21 Oct 04:55:39 05:03:49 64° 292° (WNW) 05:11:59 .
KKS-1 21 Oct 05:15:50 05:20:14 69° 259° (W) 05:24:41 437.445
ITAMSAT 1 21 Oct 05:19:56 05:24:24 29° 292° (WNW) 05:28:51 435.822/435.867
JUGNU 21 Oct 05:22:34 05:24:13 11° 168° (SSE) 05:25:51 437.505
DOVE 4 21 Oct 05:44:32 05:49:37 74° 101° (ESE) 05:54:51 437.250
STARS 21 Oct 05:46:06 05:50:29 82° 259° (W) 05:54:54 437.465
CUTE-I 21 Oct 05:56:13 05:59:52 18° 94° (E) 06:03:29 437.470
KAITUO 1B 21 Oct 06:02:05 06:04:08 14° 94° (E) 06:06:09 145.475/437.950
XW-2F 21 Oct 06:04:44 06:07:34 20° 95° (E) 06:10:23 145.980 - 146.000
LilacSat-2 21 Oct 06:11:26 06:14:46 29° 97° (E) 06:18:04 437.200
NUDT-PHONESAT 21 Oct 06:14:12 06:16:54 19° 95° (E) 06:19:36 437.300
XW-2D 21 Oct 06:17:22 06:20:48 33° 98° (E) 06:24:11 145.860 - 145.880
SO-50 21 Oct 06:26:45 06:31:12 77° 119° (ESE) 06:35:41 436.795
XW-2B 21 Oct 06:30:41 06:34:19 49° 99° (E) 06:37:56 145.730 - 145.750
O/OREOS (USA 219) 21 Oct 06:34:42 06:39:19 79° 68° (ENE) 06:43:53 437.305
AO-7 21 Oct 06:51:58 06:54:58 12° 311° (NW) 06:57:57 .
XW-2C 21 Oct 06:53:55 06:57:39 75° 283° (WNW) 07:01:22 145.795 - 145.815
RS-15 21 Oct 06:54:59 07:02:54 19° 22° (NNE) 07:10:34 29.354- 29.394
STRAND 1 21 Oct 06:57:13 07:02:07 48° 72° (ENE) 07:07:03 437.568
JUGNU 21 Oct 07:09:04 07:12:23 15° 178° (S) 07:15:43 437.505
PCSat 21 Oct 07:13:47 07:18:25 30° 108° (ESE) 07:23:04 145.827
DOVE 4 21 Oct 07:24:40 07:26:41 12° 295° (WNW) 07:28:43 437.250
XW-2A 21 Oct 07:33:35 07:35:29 14° 94° (E) 07:37:22 145.665 - 145.685
KAITUO 1B 21 Oct 07:34:55 07:38:08 29° 288° (WNW) 07:41:20 145.475/437.950
CUTE-I 21 Oct 07:34:57 07:40:07 49° 288° (WNW) 07:45:16 437.470
CUBEBUG 2 21 Oct 07:38:07 07:42:20 35° 97° (E) 07:46:25 437.445
HO-68 21 Oct 07:38:40 07:45:49 61° 102° (ESE) 07:52:54 435.675
XW-2F 21 Oct 07:38:44 07:41:33 21° 289° (WNW) 07:44:22 145.980 - 146.000
FO-29 21 Oct 07:46:01 07:49:53 21° 64° (ENE) 07:53:58 435.910
LilacSat-2 21 Oct 07:46:33 07:48:46 15° 291° (WNW) 07:50:58 437.200
NUDT-PHONESAT 21 Oct 07:47:52 07:50:39 21° 289° (WNW) 07:53:26 437.300
ZACube-1 21 Oct 07:51:13 07:53:13 13° 91° (E) 07:55:13 437.345
XW-2D 21 Oct 07:52:48 07:54:38 13° 292° (WNW) 07:56:27 145.860 - 145.880
nSIGHT-1 21 Oct 08:03:24 08:04:06 11° 127° (SE) 08:04:48 .
CUTE 1.7 + AOD 2 21 Oct 08:03:33 08:07:41 61° 285° (WNW) 08:11:50 437.475
SEEDS 21 Oct 08:08:41 08:12:52 90° 140° (SE) 08:17:02 437.485
SO-50 21 Oct 08:10:15 08:12:11 12° 316° (NW) 08:14:08 436.795
UWE-3 21 Oct 08:14:01 08:18:22 50° 99° (E) 08:22:34 435.000/436.395/437.385
Oscar 11 21 Oct 08:25:12 08:28:19 19° 94° (E) 08:31:26 .
AAUSAT CUBESAT 2 21 Oct 08:29:33 08:33:40 65° 101° (E) 08:37:46 437.432
YUBILEINY 21 Oct 08:31:49 08:39:22 35° 86° (E) 08:46:58 435.215
TIGRISAT 21 Oct 08:34:47 08:36:48 13° 64° (ENE) 08:38:50 435.000
ISS 21 Oct 08:36:46 08:39:21 22° 130° (SE) 08:41:57 437.550
STRAND 1 21 Oct 08:38:11 08:41:31 17° 267° (W) 08:44:51 437.568
PCSat 21 Oct 08:56:48 09:01:40 33° 304° (NW) 09:06:35 145.827
JUGNU 21 Oct 08:57:51 09:00:36 13° 188° (S) 09:03:20 437.505
AO-73 21 Oct 09:02:42 09:07:03 85° 105° (ESE) 09:11:15 145.935
XW-2A 21 Oct 09:05:29 09:08:09 22° 288° (WNW) 09:10:48 145.665 - 145.685
PRISM 21 Oct 09:07:24 09:08:29 11° 65° (ENE) 09:09:35 437.425
RS-15 21 Oct 09:07:28 09:19:06 54° 52° (NE) 09:30:03 29.354- 29.394
CUBEBUG 2 21 Oct 09:15:23 09:18:38 19° 293° (WNW) 09:21:49 437.445
ZACube-1 21 Oct 09:25:35 09:29:44 44° 286° (WNW) 09:33:46 437.345
HO-68 21 Oct 09:27:29 09:32:57 24° 299° (WNW) 09:38:25 435.675
FO-29 21 Oct 09:29:48 09:34:40 40° 262° (W) 09:39:49 435.910
SRMSAT 21 Oct 09:34:13 09:37:27 15° 175° (S) 09:40:43 437.500
nSIGHT-1 21 Oct 09:36:50 09:39:59 58° 321° (NW) 09:43:08 .
NO-84 21 Oct 09:44:39 09:48:00 28° 37° (NE) 09:51:07 435.350 FM
DELFI C3 21 Oct 09:47:57 09:51:37 35° 98° (E) 09:55:16 145.870
UWE-3 21 Oct 09:52:10 09:54:18 13° 295° (WNW) 09:56:23 435.000/436.395/437.385
UNISAT 6 21 Oct 09:53:45 09:58:23 80° 258° (WSW) 10:03:06 437.425
Oscar 11 21 Oct 10:00:42 10:04:27 30° 289° (WNW) 10:08:12 .
TIGRISAT 21 Oct 10:08:20 10:12:53 60° 260° (W) 10:17:33 435.000
ISS 21 Oct 10:12:47 10:15:42 30° 326° (NW) 10:18:38 437.550
EO-88 21 Oct 10:16:06 10:19:30 38° 98° (E) 10:22:53 145.990 - 145.960
YUBILEINY 21 Oct 10:27:41 10:35:51 45° 283° (WNW) 10:44:08 435.215
Max Valier Satellite 21 Oct 10:28:16 10:31:56 87° 102° (ESE) 10:35:35 145.860
PRISM 21 Oct 10:39:20 10:43:16 51° 260° (W) 10:47:13 437.425
EO-79 21 Oct 10:39:55 10:41:32 12° 65° (ENE) 10:43:08 145.935-145.965
POLYITAN 1 21 Oct 10:44:24 10:46:32 14° 66° (ENE) 10:48:41 437.675
LO-87 21 Oct 11:02:51 11:05:15 17° 94° (E) 11:07:37 145.935 - 145.965
QB50P2 21 Oct 11:03:15 11:06:43 25° 70° (ENE) 11:10:12 145.880/145.840
NANOSAT C BR1 21 Oct 11:05:35 11:08:47 21° 69° (ENE) 11:11:59 145.865
AIST 2D 21 Oct 11:09:34 11:13:04 78° 78° (ENE) 11:16:34 435.315
DUCHIFAT 1 21 Oct 11:15:27 11:18:50 23° 69° (ENE) 11:22:13 145.980
nSIGHT-1 21 Oct 11:16:13 11:16:49 10° 338° (NNW) 11:17:25 .
RS-15 21 Oct 11:20:32 11:31:08 42° 253° (WSW) 11:41:16 29.354- 29.394
NO-84 21 Oct 11:22:16 11:25:15 24° 236° (SW) 11:28:01 435.350 FM
SRMSAT 21 Oct 11:22:37 11:25:51 15° 185° (S) 11:29:05 437.500
DELFI C3 21 Oct 11:23:48 11:26:02 15° 292° (WNW) 11:28:16 145.870
BEESAT 2 21 Oct 11:27:32 11:29:36 14° 109° (ESE) 11:31:40 435.950
BEESAT 3 21 Oct 11:39:19 11:43:17 76° 120° (ESE) 11:47:19 437.485
AO-85 21 Oct 11:50:52 11:53:08 15° 110° (ESE) 11:55:24 145.980
EO-88 21 Oct 11:51:40 11:52:45 11° 293° (WNW) 11:53:49 145.990 - 145.960
ESTCUBE 1 21 Oct 12:11:56 12:16:27 85° 104° (ESE) 12:20:55 437.505/2401.250
EO-79 21 Oct 12:12:37 12:16:46 53° 260° (W) 12:20:58 145.935-145.965
POLYITAN 1 21 Oct 12:17:46 12:21:52 46° 261° (W) 12:26:01 437.675
LO-87 21 Oct 12:35:38 12:38:36 24° 289° (WNW) 12:41:32 145.935 - 145.965
SPROUT 21 Oct 12:38:33 12:42:34 37° 98° (E) 12:46:30 437.525
QB50P2 21 Oct 12:38:56 12:42:23 24° 264° (W) 12:45:52 145.880/145.840
NANOSAT C BR1 21 Oct 12:40:38 12:44:17 28° 263° (W) 12:47:59 145.865
Oscar 19 21 Oct 12:41:26 12:45:55 31° 69° (ENE) 12:50:23 437.125/150
DUCHIFAT 1 21 Oct 12:50:52 12:54:21 25° 264° (W) 12:57:51 145.980
BUGSAT 1 21 Oct 12:52:44 12:56:54 80° 78° (ENE) 13:01:09 437.445
BEESAT 2 21 Oct 13:03:07 13:06:55 42° 304° (WNW) 13:10:47 435.950
BEESAT 3 21 Oct 13:20:36 13:21:20 10° 315° (NW) 13:22:05 437.485
Gurwin Techsat 1B 21 Oct 13:21:59 13:27:07 53° 73° (ENE) 13:32:17 435.225
AO-85 21 Oct 13:29:36 13:33:10 34° 305° (NW) 13:36:48 145.980
VELOX 1 21 Oct 13:32:32 13:36:59 77° 285° (WNW) 13:41:25 145.980
M-CUBED/EXP-1 PRIME 21 Oct 13:39:31 13:42:50 49° 254° (WSW) 13:46:03 437.505
AO-7 21 Oct 14:00:33 14:07:21 29° 59° (ENE) 14:14:08 .
SPROUT 21 Oct 14:15:24 14:18:06 16° 293° (WNW) 14:20:47 437.525
Oscar 19 21 Oct 14:20:46 14:25:09 28° 264° (W) 14:29:33 437.125/150
50 SAT 21 Oct 14:32:11 14:35:16 37° 286° (WNW) 14:38:20 437.505
DX 1 21 Oct 14:34:45 14:39:05 66° 285° (WNW) 14:43:25 434.975-435.025
ITAMSAT 1 21 Oct 14:55:46 15:00:28 36° 70° (ENE) 15:05:11 435.822/435.867
UKube-1 21 Oct 14:56:03 15:00:19 60° 286° (WNW) 15:04:35 .
ITUPSAT 1 21 Oct 14:58:27 15:01:15 15° 93° (E) 15:04:02 437.325
SO-50 21 Oct 15:00:31 15:04:41 33° 53° (NE) 15:08:54 436.795
Gurwin Techsat 1B 21 Oct 15:04:01 15:07:20 17° 267° (W) 15:10:39 435.225
ISS 21 Oct 15:06:54 15:08:43 14° 26° (NNE) 15:10:31 437.550
BEESAT 21 Oct 15:12:16 15:16:01 22° 96° (E) 15:19:42 436.000
AO-7 21 Oct 15:51:26 15:59:34 59° 256° (WSW) 16:07:45 .
MOZHAYETS 4 21 Oct 15:52:16 15:56:51 74° 102° (ESE) 16:01:23
PCSat 21 Oct 16:04:46 16:08:02 16° 48° (NE) 16:11:17 145.827
nSIGHT-1 21 Oct 16:06:00 16:09:06 44° 38° (NE) 16:12:11 .
CUBESAT XI-V 21 Oct 16:07:49 16:11:20 21° 95° (E) 16:14:50 437.345
ITUPSAT 1 21 Oct 16:34:41 16:39:17 47° 288° (WNW) 16:43:51 437.325
ITAMSAT 1 21 Oct 16:35:50 16:39:57 24° 264° (W) 16:44:06 435.822/435.867
SO-50 21 Oct 16:41:14 16:44:59 24° 249° (WSW) 16:48:45 436.795
ISS 21 Oct 16:42:17 16:45:34 83° 222° (SW) 16:48:49 437.550
DOVE 4 21 Oct 16:47:48 16:51:48 49° 74° (ENE) 16:56:00 437.250
BEESAT 21 Oct 16:49:32 16:53:47 32° 290° (WNW) 16:57:59 436.000
LilacSat-2 21 Oct 16:52:48 16:53:54 11° 67° (ENE) 16:54:59 437.200
XW-2D 21 Oct 16:57:38 16:59:10 12° 68° (ENE) 17:00:42 145.860 - 145.880
KKS-1 21 Oct 17:09:41 17:13:30 27° 97° (E) 17:17:17 437.445
XW-2B 21 Oct 17:10:07 17:12:35 17° 69° (ENE) 17:15:03 145.730 - 145.750
CUTE-I 21 Oct 17:15:22 17:19:31 24° 66° (ENE) 17:23:41 437.470
XW-2C 21 Oct 17:32:22 17:35:47 32° 73° (ENE) 17:39:11 145.795 - 145.815
STARS 21 Oct 17:38:39 17:42:05 22° 95° (E) 17:45:29 437.465
nSIGHT-1 21 Oct 17:43:21 17:45:05 14° 232° (SW) 17:46:48 .
CUBESAT XI-V 21 Oct 17:44:38 17:48:41 31° 289° (WNW) 17:52:44 437.345
PCSat 21 Oct 17:46:35 17:52:00 74° 245° (WSW) 17:57:22 145.827
HO-68 21 Oct 18:04:44 18:11:01 35° 65° (ENE) 18:17:20 435.675
KAITUO 1B 21 Oct 18:11:12 18:14:56 78° 76° (ENE) 18:18:40 145.475/437.950
XW-2F 21 Oct 18:15:33 18:19:18 68° 259° (W) 18:23:04 145.980 - 146.000
NUDT-PHONESAT 21 Oct 18:22:55 18:26:37 75° 259° (WSW) 18:30:20 437.300
LilacSat-2 21 Oct 18:24:04 18:27:43 44° 261° (W) 18:31:23 437.200
DOVE 4 21 Oct 18:28:42 18:29:51 11° 270° (W) 18:31:00 437.250
XW-2D 21 Oct 18:29:23 18:32:58 39° 262° (W) 18:36:31 145.860 - 145.880
CUBEBUG 2 21 Oct 18:33:26 18:37:05 23° 69° (ENE) 18:40:48 437.445
XW-2B 21 Oct 18:43:14 18:46:31 27° 263° (W) 18:49:47 145.730 - 145.750
KKS-1 21 Oct 18:46:17 18:49:54 24° 291° (WNW) 18:53:31 437.445
YUBILEINY 21 Oct 18:46:44 18:50:59 14° 63° (ENE) 18:55:13 435.215
CUTE 1.7 + AOD 2 21 Oct 18:52:58 18:57:08 63° 76° (ENE) 19:01:19 437.475
CUTE-I 21 Oct 18:54:22 18:59:17 38° 262° (W) 19:04:15 437.470
SEEDS 21 Oct 18:57:24 19:01:19 41° 73° (ENE) 19:05:14 437.485
O/OREOS (USA 219) 21 Oct 19:07:51 19:09:45 12° 98° (E) 19:11:39 437.305
UWE-3 21 Oct 19:07:54 19:11:56 30° 71° (ENE) 19:16:01 435.000/436.395/437.385
XW-2C 21 Oct 19:08:01 19:10:01 14° 267° (W) 19:12:01 145.795 - 145.815
STRAND 1 21 Oct 19:11:11 19:14:58 20° 94° (E) 19:18:43 437.568
STARS 21 Oct 19:14:32 19:18:22 29° 290° (WNW) 19:22:12 437.465
AAUSAT CUBESAT 2 21 Oct 19:17:03 19:20:35 28° 71° (ENE) 19:24:07 437.432
Oscar 11 21 Oct 19:19:05 19:20:32 12° 65° (ENE) 19:22:01 .
XW-2A 21 Oct 19:32:48 19:36:11 64° 77° (ENE) 19:39:34 145.665 - 145.685
HO-68 21 Oct 19:51:53 19:58:32 41° 261° (W) 20:05:16 435.675
AO-73 21 Oct 19:54:44 19:59:05 46° 74° (ENE) 20:03:28 145.935
BEESAT 3 21 Oct 19:59:06 20:01:59 19° 50° (NE) 20:04:51 437.485
CUBEBUG 2 21 Oct 20:09:20 20:13:28 32° 264° (W) 20:17:42 437.445
ZACube-1 21 Oct 20:17:31 20:22:06 85° 260° (W) 20:26:42 437.345
AO-85 21 Oct 20:24:22 20:25:19 11° 45° (NE) 20:26:18 145.980
DELFI C3 21 Oct 20:31:51 20:33:57 14° 68° (ENE) 20:36:03 145.870
SEEDS 21 Oct 20:35:05 20:37:09 13° 268° (W) 20:39:12 437.485
FO-29 21 Oct 20:39:34 20:45:56 33° 97° (E) 20:52:41 435.910
YUBILEINY 21 Oct 20:40:20 20:49:11 81° 84° (E) 20:58:01 435.215
O/OREOS (USA 219) 21 Oct 20:44:10 20:48:36 52° 293° (WNW) 20:53:06 437.305
UWE-3 21 Oct 20:44:39 20:48:20 23° 266° (W) 20:52:03 435.000/436.395/437.385
STRAND 1 21 Oct 20:49:26 20:54:15 41° 289° (WNW) 20:59:02 437.568
Oscar 11 21 Oct 20:51:54 20:56:09 56° 260° (W) 21:00:25 .
EO-88 21 Oct 20:52:52 20:54:15 12° 67° (ENE) 20:55:38 145.990 - 145.960
AAUSAT CUBESAT 2 21 Oct 20:53:08 20:56:01 18° 266° (W) 20:58:55 437.432
Max Valier Satellite 21 Oct 21:04:33 21:07:37 24° 71° (ENE) 21:10:39 145.860
BEESAT 2 21 Oct 21:22:52 21:26:45 44° 57° (ENE) 21:30:34 435.950
AO-73 21 Oct 21:32:58 21:35:30 15° 268° (W) 21:38:01 145.935
BEESAT 3 21 Oct 21:36:04 21:39:35 31° 247° (WSW) 21:43:01 437.485
UNISAT 6 21 Oct 21:48:44 21:52:35 26° 96° (E) 21:56:19 437.425
AO-85 21 Oct 22:01:40 22:06:19 81° 60° (ENE) 22:11:20 145.980
TIGRISAT 21 Oct 22:02:48 22:06:59 34° 97° (E) 22:11:02 435.000
DELFI C3 21 Oct 22:04:47 22:08:21 35° 262° (W) 22:11:57 145.870
PRISM 21 Oct 22:23:21 22:26:43 24° 96° (E) 22:30:06 437.425
EO-88 21 Oct 22:24:07 22:27:31 36° 262° (W) 22:30:55 145.990 - 145.960
FO-29 21 Oct 22:24:15 22:30:55 46° 289° (WNW) 22:38:08 435.910
Max Valier Satellite 21 Oct 22:38:47 22:41:22 18° 265° (W) 22:43:57 145.860
YUBILEINY 21 Oct 22:39:26 22:44:50 18° 281° (W) 22:50:16 435.215
BEESAT 2 21 Oct 23:02:11 23:04:02 13° 252° (WSW) 23:05:52 435.950
LO-87 21 Oct 23:07:48 23:11:23 82° 78° (ENE) 23:15:01 145.935 - 145.965
ESTCUBE 1 21 Oct 23:08:29 23:12:51 54° 74° (ENE) 23:17:14 437.505/2401.250
UNISAT 6 21 Oct 23:25:24 23:29:09 25° 291° (WNW) 23:32:48 437.425
RS-15 21 Oct 23:26:24 23:37:35 44° 107° (ESE) 23:48:51 29.354- 29.394
SPROUT 21 Oct 23:29:38 23:32:48 21° 69° (ENE) 23:36:01 437.525
TIGRISAT 21 Oct 23:40:05 23:43:22 20° 293° (WNW) 23:46:35 435.000
PRISM 21 Oct 23:58:35 00:01:51 23° 291° (WNW) 00:05:06 437.425
EO-79 22 Oct 00:00:04 00:03:46 28° 97° (E) 00:07:24 145.935-145.965
POLYITAN 1 22 Oct 00:05:12 00:09:02 32° 98° (E) 00:12:50 437.675
AIST 2D 22 Oct 00:09:56 00:13:20 55° 284° (WNW) 00:16:42 435.315
QB50P2 22 Oct 00:25:18 00:29:33 66° 100° (E) 00:33:45 145.880/145.840
VELOX 1 22 Oct 00:26:43 00:31:02 66° 75° (ENE) 00:35:23 145.980
NANOSAT C BR1 22 Oct 00:26:43 00:30:53 53° 100° (E) 00:34:59 145.865
DUCHIFAT 1 22 Oct 00:36:25 00:40:37 60° 101° (ESE) 00:44:44 145.980
BUGSAT 1 22 Oct 00:38:37 00:40:51 14° 93° (E) 00:43:04 437.445
ESTCUBE 1 22 Oct 00:48:21 00:49:56 12° 268° (W) 00:51:30 437.505/2401.250
Oscar 19 22 Oct 00:57:19 00:59:25 12° 91° (E) 01:01:30 437.125/150
50 SAT 22 Oct 00:57:46 01:00:44 33° 74° (ENE) 01:03:43 437.505
NO-84 22 Oct 00:58:51 01:00:43 13° 120° (ESE) 01:02:35 435.350 FM
SPROUT 22 Oct 01:04:47 01:08:29 29° 263° (W) 01:12:14 437.525
DX 1 22 Oct 01:27:10 01:31:28 75° 75° (ENE) 01:35:48 434.975-435.025
EO-79 22 Oct 01:36:08 01:39:18 21° 291° (WNW) 01:42:27 145.935-145.965
RS-15 22 Oct 01:37:51 01:49:47 55° 308° (NW) 02:01:49 29.354- 29.394
Gurwin Techsat 1B 22 Oct 01:41:24 01:45:46 26° 96° (E) 01:50:08 435.225
POLYITAN 1 22 Oct 01:41:38 01:44:32 18° 292° (WNW) 01:47:25 437.675
UKube-1 22 Oct 01:47:19 01:51:35 79° 76° (ENE) 01:55:54 .
ITUPSAT 1 22 Oct 02:03:10 02:05:44 15° 64° (ENE) 02:08:19 437.325
NANOSAT C BR1 22 Oct 02:04:35 02:06:04 12° 295° (WNW) 02:07:34 145.865
BUGSAT 1 22 Oct 02:12:24 02:16:21 39° 287° (WNW) 02:20:14 437.445
DUCHIFAT 1 22 Oct 02:15:03 02:15:41 10° 296° (WNW) 02:16:19 145.980
BEESAT 22 Oct 02:16:21 02:19:50 20° 67° (ENE) 02:23:19 436.000
NO-84 22 Oct 02:33:21 02:37:38 73° 315° (NW) 02:41:55 435.350 FM
Oscar 19 22 Oct 02:34:03 02:39:07 65° 286° (WNW) 02:44:11 437.125/150
MOZHAYETS 4 22 Oct 02:51:06 02:55:35 51° 74° (ENE) 03:00:05
M-CUBED/EXP-1 PRIME 22 Oct 02:53:16 02:56:47 48° 290° (WNW) 03:00:35 437.505
CUBESAT XI-V 22 Oct 03:09:12 03:12:04 16° 67° (ENE) 03:14:55 437.345
ITAMSAT 1 22 Oct 03:12:25 03:15:28 15° 93° (E) 03:18:29 435.822/435.867
Gurwin Techsat 1B 22 Oct 03:20:56 03:25:42 35° 290° (WNW) 03:30:28 435.225
ITUPSAT 1 22 Oct 03:38:21 03:43:02 55° 259° (W) 03:47:47 437.325
BEESAT 22 Oct 03:52:52 03:57:17 37° 261° (W) 04:01:45 436.000
AO-7 22 Oct 03:55:49 04:03:58 57° 103° (ESE) 04:12:06 .
RS-15 22 Oct 03:57:47 04:06:01 20° 337° (NNW) 04:14:10 29.354- 29.394
KKS-1 22 Oct 04:05:43 04:08:47 19° 67° (ENE) 04:11:51 437.445
NO-84 22 Oct 04:13:19 04:15:40 14° 332° (NNW) 04:18:00 435.350 FM
MOZHAYETS 4 22 Oct 04:30:43 04:32:58 13° 268° (W) 04:35:14
STARS 22 Oct 04:33:36 04:36:00 15° 65° (ENE) 04:38:25 437.465
